QPF
0.00 0.00 0.00 0.00 0.00 0.00 0.00 0.00 0.00 0.00 0.00 0.00 0.00 0.00 0.00 0.00 0.01 0.01 0.01 0.02 0.02 0.02 0.02 0.01 0.01 0.02 0.03 0.02 0.03 0.03 0.03 0.04 0.04 0.05 0.04 0.04 0.05 0.05 0.04 0.03 0.04 0.04 0.04
0.00 0.00 0.00 0.00 0.00 0.00 0.00 0.00 0.00 0.00 0.00 0.00 0.00 0.00 0.00 0.00 0.01 0.01 0.01 0.01 0.02 0.03 0.03 0.04 0.03 0.03 0.03 0.03 0.03 0.02 0.03 0.03 0.04 0.04 0.04 0.03 0.03 0.06 0.07 0.05 0.04 0.05 0.05
0.00 0.00 0.00 0.00 0.00 0.00 0.00 0.00 0.00 0.00 0.00 0.00 0.00 0.00 0.00 0.00 0.01 0.00 0.01 0.02 0.02 0.02 0.02 0.03 0.03 0.03 0.03 0.03 0.03 0.02 0.02 0.02 0.03 0.04 0.03 0.03 0.04 0.06 0.06 0.06 0.05 0.06 0.05
0.00 0.00 0.00 0.00 0.00 0.00 0.00 0.00 0.00 0.00 0.00 0.00 0.00 0.00 0.00 0.00 0.00 0.00 0.00 0.01 0.01 0.01 0.01 0.01 0.01 0.02 0.03 0.04 0.03 0.02 0.03 0.03 0.03 0.04 0.03 0.03 0.03 0.06 0.07 0.06 0.06 0.06 0.06
0.00 0.00 0.00 0.00 0.00 0.00 0.00 0.00 0.00 0.00 0.00 0.00 0.00 0.00 0.00 0.00 0.00 0.00 0.00 0.01 0.01 0.01 0.01 0.01 0.01 0.01 0.01 0.02 0.01 0.01 0.02 0.02 0.03 0.04 0.03 0.04 0.04 0.05 0.06 0.06 0.07 0.07 0.08
0.00 0.00 0.00 0.00 0.00 0.00 0.00 0.00 0.00 0.00 0.00 0.00 0.00 0.00 0.00 0.00 0.00 0.00 0.00 0.00 0.01 0.01 0.01 0.00 0.00 0.00 0.00 0.00 0.00 0.00 0.01 0.01 0.03 0.04 0.05 0.05 0.04 0.05 0.06 0.06 0.06 0.06 0.07
0.00 0.00 0.00 0.00 0.00 0.00 0.00 0.00 0.00 0.00 0.00 0.00 0.00 0.00 0.00 0.00 0.00 0.00 0.00 0.00 0.00 0.01 0.01 0.00 0.00 0.00 0.00 0.01 0.00 0.00 0.00 0.00 0.01 0.03 0.04 0.04 0.04 0.04 0.05 0.05 0.05 0.05 0.05
0.00 0.00 0.00 0.00 0.00 0.00 0.00 0.00 0.00 0.00 0.00 0.00 0.00 0.00 0.00 0.00 0.00 0.00 0.00 0.00 0.01 0.01 0.00 0.00 0.00 0.01 0.00 0.01 0.02 0.01 0.01 0.00 0.00 0.00 0.02 0.04 0.03 0.03 0.04 0.06 0.06 0.07 0.05
0.00 0.00 0.00 0.00 0.00 0.00 0.00 0.00 0.00 0.00 0.00 0.00 0.00 0.00 0.00 0.00 0.00 0.00 0.00 0.00 0.00 0.00 0.00 0.00 0.01 0.02 0.01 0.01 0.02 0.03 0.03 0.02 0.01 0.01 0.01 0.02 0.03 0.03 0.04 0.07 0.08 0.06 0.04
0.00 0.00 0.00 0.00 0.00 0.00 0.00 0.00 0.00 0.00 0.00 0.00 0.00 0.00 0.00 0.00 0.00 0.00 0.00 0.00 0.00 0.00 0.01 0.01 0.01 0.01 0.01 0.01 0.01 0.03 0.03 0.02 0.01 0.01 0.01 0.01 0.02 0.02 0.02 0.04 0.07 0.07 0.05
0.00 0.00 0.00 0.00 0.00 0.00 0.00 0.00 0.00 0.00 0.00 0.00 0.00 0.00 0.00 0.00 0.00 0.00 0.00 0.00 0.00 0.01 0.01 0.01 0.01 0.02 0.01 0.01 0.01 0.02 0.03 0.03 0.03 0.03 0.02 0.02 0.01 0.01 0.01 0.01 0.03 0.06 0.06
0.00 0.00 0.00 0.00 0.00 0.00 0.00 0.00 0.00 0.00 0.00 0.00 0.00 0.00 0.00 0.00 0.00 0.00 0.00 0.01 0.01 0.01 0.01 0.01 0.01 0.02 0.02 0.01 0.01 0.01 0.01 0.02 0.03 0.03 0.02 0.02 0.02 0.02 0.02 0.02 0.03 0.04 0.05
0.00 0.00 0.00 0.00 0.00 0.00 0.00 0.00 0.00 0.00 0.00 0.00 0.00 0.00 0.00 0.00 0.00 0.00 0.00 0.01 0.01 0.01 0.01 0.01 0.01 0.01 0.01 0.01 0.02 0.01 0.01 0.01 0.02 0.02 0.02 0.01 0.01 0.02 0.02 0.03 0.04 0.05 0.04
0.00 0.00 0.00 0.00 0.00 0.00 0.00 0.00 0.00 0.00 0.00 0.00 0.00 0.01 0.01 0.01 0.00 0.00 0.01 0.01 0.01 0.01 0.01 0.02 0.02 0.02 0.02 0.02 0.02 0.01 0.02 0.02 0.02 0.03 0.02 0.01 0.01 0.02 0.03 0.03 0.04 0.04 0.03
0.00 0.00 0.00 0.00 0.00 0.00 0.00 0.00 0.00 0.00 0.00 0.00 0.00 0.00 0.01 0.01 0.01 0.00 0.01 0.01 0.01 0.01 0.02 0.02 0.02 0.02 0.02 0.02 0.02 0.02 0.02 0.03 0.02 0.02 0.02 0.02 0.02 0.03 0.03 0.03 0.03 0.03 0.03
0.00 0.00 0.00 0.00 0.00 0.00 0.00 0.00 0.00 0.00 0.00 0.00 0.00 0.00 0.01 0.01 0.01 0.01 0.01 0.01 0.01 0.02 0.03 0.03 0.03 0.03 0.03 0.03 0.03 0.03 0.03 0.03 0.03 0.02 0.02 0.02 0.03 0.03 0.05 0.05 0.04 0.04 0.04
0.00 0.00 0.00 0.00 0.00 0.00 0.01 0.01 0.01 0.01 0.00 0.00 0.00 0.00 0.00 0.00 0.01 0.01 0.01 0.01 0.01 0.01 0.02 0.03 0.04 0.04 0.04 0.05 0.04 0.04 0.03 0.03 0.03 0.04 0.03 0.03 0.03 0.04 0.04 0.05 0.05 0.05 0.05
0.00 0.00 0.00 0.00 0.01 0.01 0.01 0.01 0.01 0.01 0.01 0.00 0.00 0.00 0.00 0.00 0.00 0.00 0.01 0.01 0.01 0.01 0.02 0.02 0.04 0.05 0.06 0.06 0.06 0.06 0.06 0.06 0.05 0.06 0.05 0.04 0.04 0.04 0.05 0.05 0.05 0.05 0.05
0.00 0.00 0.00 0.00 0.00 0.01 0.01 0.00 0.01 0.01 0.01 0.00 0.00 0.00 0.00 0.00 0.00 0.00 0.01 0.02 0.02 0.02 0.02 0.02 0.03 0.04 0.06 0.07 0.08 0.09 0.09 0.09 0.08 0.07 0.06 0.05 0.04 0.03 0.04 0.05 0.05 0.06 0.05
0.00 0.00 0.00 0.00 0.00 0.00 0.01 0.00 0.00 0.01 0.01 0.00 0.00 0.01 0.01 0.01 0.01 0.01 0.01 0.02 0.02 0.02 0.03 0.03 0.04 0.04 0.05 0.06 0.08 0.09 0.10 0.09 0.08 0.07 0.06 0.05 0.04 0.03 0.03 0.03 0.04 0.04 0.04
0.00 0.00 0.00 0.00 0.00 0.00 0.01 0.01 0.01 0.01 0.01 0.01 0.00 0.01 0.01 0.01 0.01 0.01 0.02 0.02 0.03 0.03 0.03 0.03 0.04 0.05 0.06 0.07 0.10 0.10 0.10 0.09 0.09 0.08 0.07 0.06 0.06 0.04 0.03 0.03 0.03 0.03 0.03
0.00 0.00 0.00 0.00 0.00 0.00 0.01 0.01 0.01 0.01 0.01 0.01 0.00 0.01 0.01 0.01 0.01 0.01 0.02 0.02 0.03 0.04 0.04 0.05 0.05 0.06 0.07 0.08 0.10 0.12 0.12 0.11 0.09 0.09 0.09 0.08 0.06 0.05 0.03 0.03 0.03 0.03 0.03
0.00 0.00 0.00 0.00 0.00 0.00 0.01 0.01 0.01 0.01 0.01 0.01 0.01 0.01 0.01 0.01 0.02 0.02 0.02 0.02 0.03 0.04 0.05 0.05 0.06 0.06 0.06 0.07 0.08 0.11 0.12 0.11 0.10 0.11 0.12 0.12 0.10 0.06 0.04 0.03 0.02 0.03 0.03
0.00 0.00 0.00 0.00 0.00 0.00 0.01 0.01 0.01 0.01 0.01 0.01 0.01 0.01 0.02 0.02 0.02 0.02 0.02 0.02 0.03 0.04 0.04 0.05 0.05 0.06 0.06 0.06 0.07 0.08 0.10 0.11 0.11 0.11 0.13 0.14 0.13 0.11 0.07 0.03 0.03 0.02 0.03
0.00 0.00 0.01 0.01 0.01 0.01 0.01 0.01 0.01 0.01 0.01 0.01 0.02 0.02 0.02 0.02 0.02 0.02 0.02 0.03 0.03 0.03 0.03 0.04 0.05 0.05 0.06 0.07 0.07 0.08 0.09 0.11 0.12 0.12 0.12 0.13 0.13 0.13 0.10 0.06 0.03 0.03 0.03
0.01 0.01 0.01 0.01 0.01 0.01 0.01 0.01 0.01 0.01 0.02 0.02 0.02 0.02 0.02 0.02 0.02 0.02 0.03 0.03 0.03 0.03 0.04 0.04 0.05 0.05 0.06 0.08 0.08 0.09 0.10 0.12 0.14 0.15 0.14 0.13 0.11 0.10 0.10 0.08 0.05 0.03 0.02
MSLP
1013.21 1013.14 1013.13 1013.15 1013.17 1013.16 1013.10 1012.98 1012.81 1012.62 1012.44 1012.29 1012.20 1012.18 1012.22 1012.29 1012.38 1012.46 1012.51 1012.50 1012.44 1012.34 1012.21 1012.08 1011.98 1011.91 1011.90 1011.93 1011.99 1012.06 1012.12 1012.15 1012.15 1012.09 1011.99 1011.86 1011.72 1011.61 1011.53 1011.51 1011.56 1011.69 1011.88
1013.72 1013.61 1013.56 1013.54 1013.52 1013.46 1013.35 1013.18 1012.96 1012.71 1012.47 1012.25 1012.09 1011.99 1011.96 1011.99 1012.05 1012.11 1012.16 1012.16 1012.12 1012.03 1011.91 1011.79 1011.68 1011.60 1011.58 1011.60 1011.67 1011.78 1011.89 1011.99 1012.05 1012.08 1012.05 1011.98 1011.88 1011.78 1011.69 1011.64 1011.66 1011.73 1011.89
1014.33 1014.23 1014.16 1014.11 1014.04 1013.94 1013.78 1013.57 1013.30 1012.99 1012.67 1012.38 1012.14 1011.96 1011.84 1011.79 1011.79 1011.81 1011.83 1011.81 1011.77 1011.68 1011.57 1011.44 1011.32 1011.23 1011.20 1011.22 1011.30 1011.43 1011.58 1011.73 1011.86 1011.95 1011.98 1011.97 1011.91 1011.83 1011.75 1011.69 1011.68 1011.74 1011.87
1014.97 1014.89 1014.82 1014.76 1014.67 1014.54 1014.35 1014.09 1013.78 1013.43 1013.05 1012.69 1012.37 1012.10 1011.90 1011.76 1011.67 1011.61 1011.57 1011.52 1011.43 1011.33 1011.19 1011.05 1010.92 1010.82 1010.77 1010.78 1010.86 1010.99 1011.16 1011.35 1011.52 1011.66 1011.75 1011.78 1011.77 1011.72 1011.66 1011.61 1011.60 1011.65 1011.77
1015.53 1015.49 1015.45 1015.39 1015.29 1015.15 1014.94 1014.67 1014.34 1013.96 1013.55 1013.14 1012.76 1012.41 1012.12 1011.89 1011.71 1011.56 1011.43 1011.31 1011.17 1011.02 1010.85 1010.67 1010.51 1010.39 1010.31 1010.30 1010.36 1010.48 1010.64 1010.83 1011.03 1011.19 1011.32 1011.39 1011.42 1011.41 1011.38 1011.36 1011.38 1011.44 1011.57
1015.94 1015.95 1015.93 1015.88 1015.79 1015.65 1015.45 1015.19 1014.86 1014.49 1014.08 1013.66 1013.24 1012.85 1012.49 1012.17 1011.90 1011.66 1011.44 1011.23 1011.02 1010.79 1010.57 1010.34 1010.14 1009.97 1009.85 1009.79 1009.81 1009.90 1010.03 1010.20 1010.39 1010.56 1010.71 1010.81 1010.88 1010.91 1010.93 1010.95 1011.00 1011.10 1011.26
1016.16 1016.20 1016.20 1016.17 1016.10 1015.97 1015.79 1015.56 1015.27 1014.93 1014.55 1014.15 1013.73 1013.32 1012.92 1012.55 1012.20 1011.88 1011.57 1011.27 1010.97 1010.68 1010.39 1010.10 1009.84 1009.61 1009.43 1009.31 1009.27 1009.29 1009.36 1009.49 1009.64 1009.79 1009.93 1010.06 1010.16 1010.23 1010.31 1010.39 1010.49 1010.65 1010.85
1016.16 1016.22 1016.24 1016.22 1016.16 1016.06 1015.91 1015.72 1015.49 1015.21 1014.88 1014.52 1014.14 1013.74 1013.34 1012.94 1012.54 1012.16 1011.78 1011.42 1011.05 1010.69 1010.33 1009.98 1009.65 1009.35 1009.09 1008.90 1008.76 1008.69 1008.68 1008.73 1008.82 1008.93 1009.05 1009.18 1009.30 1009.42 1009.55 1009.70 1009.87 1010.09 1010.35
1016.00 1016.07 1016.09 1016.07 1016.02 1015.94 1015.83 1015.68 1015.50 1015.28 1015.02 1014.72 1014.39 1014.03 1013.65 1013.25 1012.85 1012.44 1012.03 1011.61 1011.20 1010.78 1010.37 1009.96 1009.57 1009.19 1008.85 1008.56 1008.32 1008.14 1008.03 1007.97 1007.97 1008.02 1008.10 1008.22 1008.36 1008.52 1008.71 1008.92 1009.17 1009.45 1009.78
1015.74 1015.79 1015.81 1015.79 1015.74 1015.67 1015.58 1015.47 1015.34 1015.17 1014.97 1014.73 1014.46 1014.15 1013.80 1013.43 1013.04 1012.63 1012.22 1011.79 1011.36 1010.92 1010.47 1010.02 1009.57 1009.12 1008.70 1008.30 1007.95 1007.65 1007.41 1007.24 1007.13 1007.10 1007.13 1007.22 1007.36 1007.56 1007.80 1008.08 1008.40 1008.76 1009.15
1015.45 1015.48 1015.48 1015.46 1015.40 1015.34 1015.25 1015.16 1015.04 1014.91 1014.75 1014.55 1014.32 1014.05 1013.75 1013.42 1013.07 1012.69 1012.30 1011.89 1011.47 1011.03 1010.57 1010.09 1009.59 1009.09 1008.59 1008.09 1007.62 1007.19 1006.82 1006.53 1006.31 1006.18 1006.15 1006.20 1006.34 1006.56 1006.85 1007.20 1007.59 1008.02 1008.48
1015.17 1015.20 1015.18 1015.15 1015.08 1015.01 1014.91 1014.81 1014.69 1014.55 1014.40 1014.22 1014.01 1013.77 1013.50 1013.21 1012.90 1012.57 1012.21 1011.84 1011.45 1011.03 1010.58 1010.09 1009.58 1009.02 1008.45 1007.86 1007.29 1006.74 1006.25 1005.83 1005.49 1005.28 1005.17 1005.19 1005.32 1005.55 1005.88 1006.28 1006.74 1007.24 1007.77
1014.93 1014.95 1014.94 1014.89 1014.82 1014.72 1014.59 1014.46 1014.30 1014.14 1013.96 1013.76 1013.54 1013.32 1013.07 1012.80 1012.53 1012.24 1011.93 1011.60 1011.25 1010.86 1010.43 1009.96 1009.42 1008.84 1008.22 1007.56 1006.90 1006.25 1005.65 1005.12 1004.69 1004.38 1004.21 1004.19 1004.30 1004.55 1004.91 1005.36 1005.88 1006.44 1007.02
1014.71 1014.74 1014.73 1014.68 1014.59 1014.47 1014.31 1014.12 1013.91 1013.69 1013.46 1013.22 1012.98 1012.73 1012.48 1012.23 1011.98 1011.72 1011.45 1011.16 1010.84 1010.49 1010.08 1009.62 1009.09 1008.49 1007.83 1007.13 1006.41 1005.68 1005.00 1004.39 1003.88 1003.50 1003.28 1003.22 1003.31 1003.56 1003.95 1004.43 1005.00 1005.61 1006.25
1014.46 1014.52 1014.53 1014.48 1014.38 1014.22 1014.01 1013.77 1013.50 1013.22 1012.92 1012.63 1012.34 1012.06 1011.79 1011.53 1011.28 1011.03 1010.78 1010.52 1010.22 1009.89 1009.50 1009.05 1008.53 1007.93 1007.27 1006.54 1005.79 1005.03 1004.30 1003.64 1003.08 1002.65 1002.38 1002.28 1002.36 1002.60 1002.99 1003.51 1004.11 1004.77 1005.46
1014.15 1014.23 1014.25 1014.21 1014.09 1013.90 1013.66 1013.36 1013.04 1012.69 1012.34 1011.99 1011.65 1011.33 1011.03 1010.75 1010.49 1010.23 1009.97 1009.71 1009.41 1009.08 1008.71 1008.27 1007.76 1007.17 1006.53 1005.82 1005.07 1004.32 1003.58 1002.90 1002.30 1001.84 1001.53 1001.40 1001.45 1001.68 1002.07 1002.59 1003.22 1003.91 1004.64
1013.73 1013.83 1013.86 1013.81 1013.68 1013.47 1013.19 1012.86 1012.49 1012.10 1011.70 1011.31 1010.93 1010.58 1010.25 1009.94 1009.65 1009.36 1009.08 1008.79 1008.47 1008.13 1007.75 1007.32 1006.83 1006.28 1005.66 1004.99 1004.29 1003.56 1002.85 1002.17 1001.58 1001.10 1000.76 1000.59 1000.60 1000.79 1001.15 1001.66 1002.29 1003.02 1003.79
1013.22 1013.31 1013.33 1013.27 1013.12 1012.89 1012.59 1012.23 1011.84 1011.43 1011.01 1010.61 1010.22 1009.84 1009.48 1009.15 1008.82 1008.49 1008.16 1007.83 1007.48 1007.11 1006.72 1006.28 1005.82 1005.30 1004.74 1004.13 1003.49 1002.83 1002.16 1001.51 1000.93 1000.43 1000.06 999.84 999.79 999.92 1000.23 1000.71 1001.33 1002.06 1002.87
1012.61 1012.68 1012.68 1012.59 1012.42 1012.17 1011.86 1011.49 1011.10 1010.70 1010.29 1009.89 1009.50 1009.12 1008.76 1008.39 1008.03 1007.66 1007.27 1006.89 1006.49 1006.09 1005.67 1005.24 1004.79 1004.33 1003.83 1003.30 1002.73 1002.14 1001.53 1000.93 1000.36 999.84 999.43 999.15 999.02 999.06 999.29 999.71 1000.29 1001.02 1001.86
1011.96 1011.99 1011.95 1011.83 1011.63 1011.36 1011.04 1010.68 1010.31 1009.93 1009.55 1009.18 1008.82 1008.45 1008.08 1007.70 1007.30 1006.89 1006.45 1006.01 1005.56 1005.11 1004.67 1004.24 1003.83 1003.40 1002.97 1002.52 1002.04 1001.53 1000.98 1000.42 999.85 999.32 998.85 998.48 998.25 998.20 998.33 998.66 999.18 999.89 1000.74
1011.31 1011.29 1011.20 1011.03 1010.80 1010.52 1010.20 1009.85 1009.51 1009.16 1008.83 1008.49 1008.16 1007.83 1007.47 1007.08 1006.65 1006.20 1005.71 1005.22 1004.71 1004.22 1003.77 1003.33 1002.93 1002.55 1002.18 1001.81 1001.41 1000.97 1000.48 999.95 999.38 998.82 998.28 997.82 997.48 997.30 997.32 997.55 998.01 998.67 999.53
1010.69 1010.62 1010.48 1010.27 1010.01 1009.70 1009.38 1009.04 1008.72 1008.42 1008.12 1007.84 1007.55 1007.23 1006.89 1006.50 1006.05 1005.57 1005.04 1004.49 1003.95 1003.42 1002.93 1002.49 1002.10 1001.76 1001.44 1001.12 1000.78 1000.40 999.96 999.45 998.88 998.28 997.67 997.13 996.68 996.39 996.29 996.42 996.80 997.42 998.27
1010.12 1010.01 1009.82 1009.57 1009.27 1008.95 1008.62 1008.29 1007.99 1007.71 1007.46 1007.20 1006.95 1006.66 1006.33 1005.93 1005.48 1004.97 1004.40 1003.81 1003.22 1002.66 1002.14 1001.68 1001.29 1000.96 1000.66 1000.38 1000.08 999.74 999.32 998.83 998.25 997.62 996.98 996.36 995.83 995.45 995.26 995.31 995.62 996.20 997.03
1009.57 1009.43 1009.21 1008.93 1008.61 1008.26 1007.92 1007.59 1007.30 1007.03 1006.80 1006.57 1006.33 1006.07 1005.74 1005.35 1004.89 1004.35 1003.76 1003.14 1002.50 1001.89 1001.33 1000.84 1000.42 1000.07 999.77 999.49 999.21 998.88 998.48 997.99 997.43 996.79 996.13 995.48 994.92 994.48 994.25 994.26 994.53 995.08 995.90
1009.02 1008.86 1008.63 1008.33 1007.98 1007.61 1007.25 1006.92 1006.62 1006.36 1006.12 1005.91 1005.68 1005.43 1005.11 1004.72 1004.25 1003.70 1003.08 1002.41 1001.73 1001.07 1000.45 999.90 999.42 999.02 998.68 998.37 998.07 997.73 997.34 996.87 996.33 995.72 995.09 994.47 993.92 993.51 993.28 993.29 993.57 994.13 994.96
1008.42 1008.27 1008.03 1007.71 1007.34 1006.96 1006.58 1006.23 1005.91 1005.65 1005.41 1005.20 1004.97 1004.72 1004.41 1004.02 1003.54 1002.97 1002.32 1001.61 1000.88 1000.14 999.45 998.80 998.24 997.75 997.33 996.96 996.61 996.25 995.86 995.42 994.92 994.38 993.82 993.29 992.84 992.51 992.36 992.45 992.78 993.38 994.23
Thickness
5737 5736 5734 5733 5731 5730 5727 5725 5723 5722 5720 5718 5716 5713 5711 5708 5706 5702 5699 5697 5693 5691 5690 5688 5686 5686 5685 5685 5686 5685 5685 5684 5680 5685 5691 5695 5697 5698 5701 5704 5707 5709 5710
5735 5733 5732 5731 5729 5727 5726 5724 5723 5721 5720 5718 5716 5713 5711 5708 5706 5703 5699 5697 5694 5692 5690 5689 5687 5687 5685 5685 5684 5684 5684 5685 5682 5681 5686 5689 5692 5695 5697 5700 5703 5705 5707
5733 5730 5729 5728 5726 5725 5724 5723 5722 5720 5719 5717 5715 5712 5710 5708 5706 5703 5701 5698 5696 5694 5692 5690 5688 5687 5684 5684 5684 5683 5683 5685 5684 5682 5682 5686 5688 5691 5693 5695 5699 5701 5703
5729 5727 5725 5724 5723 5722 5722 5721 5719 5718 5716 5715 5713 5712 5710 5708 5705 5703 5700 5698 5697 5696 5695 5692 5690 5688 5685 5684 5684 5683 5683 5682 5682 5681 5680 5682 5684 5687 5688 5689 5691 5695 5697
5726 5723 5722 5722 5721 5719 5718 5717 5716 5714 5713 5712 5710 5709 5707 5705 5703 5700 5697 5697 5695 5694 5694 5693 5692 5690 5687 5685 5683 5681 5680 5679 5678 5678 5677 5678 5680 5681 5682 5685 5685 5688 5691
5722 5719 5719 5717 5716 5714 5714 5713 5711 5710 5709 5707 5706 5704 5703 5702 5699 5697 5694 5693 5692 5691 5691 5691 5690 5689 5687 5685 5683 5682 5680 5677 5676 5675 5675 5675 5677 5679 5680 5681 5681 5681 5681
5718 5715 5714 5713 5711 5710 5709 5707 5705 5705 5704 5702 5701 5700 5698 5697 5696 5693 5691 5689 5688 5688 5688 5687 5688 5688 5686 5683 5681 5680 5679 5678 5677 5675 5673 5674 5675 5677 5677 5677 5677 5677 5679
5712 5710 5709 5707 5705 5704 5703 5701 5700 5700 5698 5697 5696 5696 5694 5693 5692 5690 5687 5685 5685 5685 5684 5684 5682 5682 5682 5680 5678 5676 5675 5675 5675 5674 5674 5674 5676 5676 5676 5675 5675 5675 5678
5706 5704 5704 5702 5700 5698 5697 5695 5695 5693 5692 5692 5691 5690 5689 5688 5687 5685 5682 5679 5678 5679 5680 5679 5678 5677 5677 5675 5673 5671 5671 5672 5673 5673 5672 5672 5672 5673 5673 5671 5669 5667 5667
5699 5699 5699 5697 5695 5693 5692 5691 5690 5688 5687 5686 5685 5684 5684 5682 5681 5679 5676 5672 5671 5671 5672 5672 5671 5670 5669 5668 5666 5665 5664 5666 5667 5667 5667 5667 5668 5668 5668 5667 5666 5663 5662
5695 5693 5692 5691 5690 5689 5687 5685 5683 5682 5680 5679 5678 5678 5677 5676 5674 5671 5668 5664 5663 5662 5663 5663 5663 5663 5661 5660 5659 5659 5660 5660 5661 5661 5661 5661 5661 5662 5662 5663 5663 5662 5659
5687 5686 5684 5684 5683 5683 5679 5677 5675 5673 5671 5669 5668 5668 5667 5667 5664 5662 5659 5656 5654 5652 5653 5653 5654 5654 5653 5652 5651 5652 5654 5654 5654 5654 5654 5654 5655 5656 5657 5658 5658 5658 5659
5678 5677 5676 5676 5674 5673 5670 5667 5665 5663 5660 5658 5656 5654 5654 5654 5653 5651 5648 5646 5644 5642 5642 5643 5642 5642 5642 5642 5643 5644 5644 5645 5646 5646 5647 5649 5650 5651 5651 5651 5651 5651 5651
5669 5667 5667 5666 5664 5662 5660 5657 5654 5651 5648 5646 5643 5641 5641 5640 5639 5637 5635 5633 5631 5629 5629 5630 5631 5631 5630 5631 5634 5634 5636 5637 5638 5639 5641 5643 5644 5643 5643 5643 5642 5641 5640
5659 5657 5656 5654 5652 5650 5649 5646 5644 5642 5639 5635 5633 5630 5628 5627 5627 5624 5621 5619 5618 5617 5616 5616 5618 5618 5619 5621 5623 5626 5627 5629 5630 5632 5633 5633 5634 5634 5634 5635 5634 5634 5632
5646 5644 5642 5641 5639 5637 5636 5635 5635 5632 5630 5627 5624 5620 5618 5617 5615 5613 5610 5608 5607 5605 5602 5604 5606 5608 5610 5612 5613 5616 5618 5619 5621 5623 5624 5625 5626 5626 5626 5626 5626 5625 5625
5633 5631 5629 5627 5625 5623 5622 5620 5619 5620 5618 5615 5612 5609 5606 5604 5602 5599 5597 5595 5594 5592 5590 5593 5595 5598 5600 5601 5603 5606 5609 5611 5612 5613 5615 5616 5617 5618 5618 5617 5617 5616 5616
5621 5619 5616 5613 5611 5609 5607 5606 5605 5604 5603 5602 5601 5597 5594 5591 5588 5586 5583 5580 5579 5580 5580 5582 5584 5587 5589 5591 5593 5596 5599 5601 5603 5604 5606 5607 5608 5609 5609 5609 5609 5608 5608
5608 5605 5602 5600 5597 5595 5594 5593 5591 5590 5588 5587 5586 5584 5580 5577 5574 5571 5568 5566 5566 5567 5568 5570 5572 5574 5577 5580 5582 5585 5588 5591 5593 5595 5596 5598 5600 5600 5600 5601 5601 5600 5599
5595 5592 5589 5586 5584 5581 5580 5578 5576 5575 5573 5571 5570 5568 5565 5561 5559 5557 5555 5554 5554 5555 5556 5558 5560 5562 5565 5568 5570 5574 5577 5580 5583 5585 5587 5589 5591 5592 5593 5593 5593 5593 5592
5581 5578 5575 5572 5569 5567 5565 5563 5562 5560 5558 5557 5556 5554 5550 5547 5546 5545 5544 5543 5543 5543 5545 5546 5549 5551 5553 5556 5559 5561 5565 5569 5573 5575 5578 5580 5582 5583 5585 5585 5585 5585 5585
5566 5563 5560 5557 5555 5553 5551 5549 5547 5545 5544 5542 5541 5541 5539 5535 5533 5533 5533 5533 5534 5534 5535 5536 5537 5540 5541 5544 5548 5550 5554 5557 5561 5565 5567 5570 5572 5574 5576 5576 5577 5576 5576
5552 5549 5546 5544 5541 5540 5537 5536 5534 5532 5530 5529 5528 5527 5525 5523 5522 5522 5522 5523 5523 5524 5525 5525 5527 5530 5532 5535 5537 5540 5543 5547 5550 5554 5557 5559 5561 5564 5567 5568 5569 5568 5568
5538 5535 5532 5530 5528 5526 5524 5522 5520 5518 5517 5515 5514 5513 5512 5511 5510 5511 5511 5512 5512 5513 5514 5515 5516 5519 5522 5525 5527 5530 5534 5538 5540 5543 5546 5550 5552 5554 5557 5559 5560 5560 5560
5524 5521 5519 5517 5515 5513 5511 5508 5506 5505 5503 5502 5501 5500 5499 5499 5499 5499 5500 5500 5500 5501 5503 5504 5506 5508 5511 5514 5517 5521 5523 5526 5529 5532 5535 5538 5543 5545 5548 5550 5551 5551 5551
5511 5509 5507 5505 5503 5500 5497 5495 5493 5492 5490 5489 5488 5487 5487 5487 5487 5488 5488 5488 5488 5489 5491 5493 5495 5498 5501 5504 5508 5511 5513 5515 5519 5522 5525 5528 5532 5536 5538 5540 5541 5541 5541